STARLINK-1301, 45361

Orbit data source: Space-Track

STARLINK-1301, 45361 is a payload satellite owned by SpaceX/Seattle (US) in LEO that was launched on Wed, 18 Mar 2020 UTC via an FALCON 9 launch vehicle from the Air Force Eastern Test Range (AFETR). Payload-class satellites include a variety of spacecraft equipped with specific instruments for various scientific and technological missions. These include communications satellites like Starlink; space stations such as the ISS; scientific satellites like the Hubble; Earth observation satellites from companies like Planet Labs, Umbra, and HawkEye 360; GPS; miniature CubeSats for education and research; and military/defense satellites.

Loading next visibility...
Identifier
45361, 2020-019B
Orbit
LEO
Country
Flag of USUS
Related business
Manufacturer
SpaceX/Seattle
Mission
Partially operational Commercial Communications
Bus & Motor
STARLINK, Unknown motor
Mass
260 kg wet, ~248 kg dry
Launch date (UTC)
2020-03-18 (6 years ago)
Launch vehicle
FALCON 9
Launch site
Air Force Eastern Test Range (AFETR)
Object type
Payload
Rocket body
Debris
Shape & HBR
Box + 1 Pan, 10.1 m
Radar Cross Section
13.562 m², Large (>1 m²)

Expand to show TLE details & history
Last TLE update: 12 hours ago

TLE from 12 hours ago
0 STARLINK-1301
1 45361U 20019B   25307.66711477  .00083777  00000-0  22749-2 0  9995
2 45361  53.0522 348.8365 0002426  26.3205 333.7920 15.36883476311066
Epoch: 2025-11-03T16:00Z
TLE epoch observation values (Epoch: 2025-11-03T16:00:38.716Z)
Latitude
-0.00001°
Longitude
65.50997°
Altitude
454.735 km
Speed
7.642 km/s
True Right ascension
23h 15m 20s
True Declination
0° 00' 00"
Sunlit
Object was in full shadow at epoch
Visualization orbit readout
Latitude
Unknown
Longitude
Unknown
Altitude
Unknown
Speed
Unknown
Apparent Right ascension
Unknown
Apparent Declination
Unknown
Sunlit
N/A
Visualization observer readout
Local Sidereal Time
00:15:07
Azimuth
Unknown
Elevation
Unknown
Doppler factor
Unknown
Orbital elements
Apogee altitude
457.264 km
Perigee altitude
453.949 km
Semi-major axis
6,833.743 km
Eccentricity
0.00024
Inclination
53.0522°
RAAN
348.8365°
Arg. of periapsis
26.3205°
True anomaly
333.77972°
Mean anomaly
333.792°
Eccentric anomaly
333.78586°
Mean motion
3.84198 °/min
Orbital period
93.7 mins
BSTAR
0.0022749
Loading maneuver chart data...
Computing Atmospheric mass density...
Loading historical data...
Loading historical data...
Loading historical data...
Loading historical data...
Loading historical data...
Loading historical data...
Loading historical data...

Documentation

Showing up to 5 results
|